Weather in Pushkar

India     26°29′28″N   74°33′26″E
temp.,
°C
wind,
m/s
gust,
m/s
humid.,
%
clouds,
%
prec.,
mm/h
press.,
hPa
HPBL,
m
19 april, mon
mon1923:30+28sw331435 0.0 101018
02:30+26wsw1118100 0.0 100911
05:30+25sw45184 0.0 100949
08:30+30wsw68204 0.0 1010386
11:30+36w671318 0.0 10094342
14:30+38wnw66781 0.0 10064912
17:30+37nw4475 0.0 10044881
20:30+29ssw011287 0.0 100611
20 april, tue
tue2023:30+28sw221928 0.0 100718
02:30+27w482255 0.0 1005119
05:30+25nnw012561 0.0 100514
08:30+29sse1120100 0.0 1007345
11:30+34sse2315100 0.0 10061475
14:30+37wsw91014100 0.0 10033871
17:30+34wsw9121837 0.0 10032114
20:30+25nw284290 0.0 1007243
21 april, wed
wed2123:30+24nw224198 0.0 100830
02:30+22nne224342 0.0 100713
05:30+21n224665 0.0 100929
08:30+25s11377 0.0 1011313
11:30+33wsw57176 0.0 10102271
14:30+35wsw571110 0.0 10074126
17:30+34wsw671125 0.0 10064355
20:30+22ne7124214 0.0 1009211
22 april, thu
thu2223:30+23se11380 0.1 101011
02:30+23se11350 0.0 100912
05:30+21sse23400 0.0 101031
08:30+27sse23270 0.0 1011361
11:30+33wsw33170 0.0 10102021
14:30+36wnw44100 0.0 10073470
17:30+36wnw45100 0.0 10063837
20:30+29sw22140 0.0 100812
23 april, fri
fri2323:30+27nw22160 0.0 100811
02:30+25sw22170 0.0 100712
05:30+24wsw33210 0.0 100825
08:30+29wsw46180 0.0 1010378
11:30+36wsw55140 0.0 10093325
14:30+38wsw5590 0.0 10064037
17:30+37w55925 0.0 10054041
20:30+31wsw331328 0.0 100618